Location: St. Louis
(38.6270°N, 90.1994°W)
Time: 14:00:05
(UTC-06:00)

Vanguard 1 - Pass Details

Date: 01 December 2021
Orbit: 652 x 3830 km, 34.2° (Epoch: 19 January)

Event Time Altitude Azimuth Distance (km) Brightness Sun altitude
Rises 19:48:28 0° 166° (SSE) 6,560 14.2 -36.2°
Enters shadow 19:55:11 - 147° (SSE) 6,333 13.9 -37.5°
Reaches altitude 10° 19:59:05 10° 136° (SE) 6,355 - -38.3°
Maximum altitude 20:03:31 11° 123° (ESE) 6,503 - -39.2°
Drops below altitude 10° 20:08:11 10° 111° (ESE) 6,778 - -40.1°
Sets 20:21:02 0° 83° (E) 7,960 - -42.6°
